Weather History for Peoria, IL

Change the Weather History Date:

Sunday, July 28, 2013

  Actual Average Record
Temperature  
Mean Temperature 63 °F 75 °F  
Max Temperature 74 °F 85 °F 102 °F (1983)
Min Temperature 51 °F 65 °F 51 °F (2013)
Degree Days  
Heating Degree Days 2 0  
Month to date heating degree days 4 0  
Since 1 June heating degree days 22 18  
Since 1 July heating degree days 4 0  
Cooling Degree Days 0 10  
Month to date cooling degree days 291 299  
Year to date cooling degree days 621 602  
Since 1 June cooling degree days 514 521  
Growing Degree Days 12 (Base 50)    
Moisture  
Dew Point 50 °F    
Average Humidity 65    
Maximum Humidity 83    
Minimum Humidity 46    
Precipitation  
Precipitation 0.00 in 0.11 in 2.69 in (1966)
Month to date precipitation 1.29 3.49  
Year to date precipitation 31.00 21.35  
Snow  
Snow 0.00 in 0.00 in 0.00 in ()
Month to date snowfall 0.0 0.0  
Since 1 June snowfall 0.0 0.0  
Since 1 July snowfall 0.0 0.0  
Snow Depth 0.00 in    
Sea Level Pressure  
Sea Level Pressure 30.00 in    
Wind  
Wind Speed 7 mph (WNW)    
Max Wind Speed 17 mph    
Max Gust Speed 25 mph    
Visibility 10 miles    
Events      
T = Trace of Precipitation, MM = Missing Value Source: NWS Daily Summary

Daily Weather History Graph

Daily Weather History Graph

Search for Another Location

Airport:

Trip Planner

Search our weather history database for the weather conditions in past years. The results will help you decide how hot, cold, wet, or windy it might be!

Date:

Astronomy

Jul. 28, 2013 Rise Set
Actual Time 5:52 AM CDT 8:17 PM CDT
Civil Twilight 5:20 AM CDT 8:48 PM CDT
Nautical Twilight 4:42 AM CDT 9:27 PM CDT
Astronomical Twilight 3:59 AM CDT 10:09 PM CDT
Moon 11:37 PM CDT (7/28) 12:36 PM CDT (7/28)
Length of Visible Light 15h 27m
Length of Day
14h 25m
Waning Gibbous, 60% of the Moon is Illuminated
Jul 28
Waning Gibbous
Jul 29
Last Quarter
Aug 6
New
Aug 14
First Quarter
Aug 20
Full

Hourly Weather History & Observations

Time (CDT) Temp. Dew Point Humidity Pressure Visibility Wind Dir Wind Speed Gust Speed Precip Events Conditions
12:54 AM 57.0 °F 48.0 °F 72% 29.97 in 10.0 mi West 4.6 mph - N/A   Overcast
1:54 AM 55.0 °F 48.0 °F 77% 29.96 in 10.0 mi Calm Calm - N/A   Clear
2:54 AM 54.0 °F 48.0 °F 80% 29.96 in 10.0 mi WSW 4.6 mph - N/A   Partly Cloudy
3:54 AM 53.1 °F 46.9 °F 80% 29.95 in 10.0 mi West 5.8 mph - N/A   Partly Cloudy
4:54 AM 53.1 °F 46.0 °F 77% 29.96 in 10.0 mi West 9.2 mph - N/A   Scattered Clouds
5:54 AM 52.0 °F 46.0 °F 80% 29.96 in 10.0 mi WSW 6.9 mph - N/A   Clear
6:54 AM 55.0 °F 46.9 °F 74% 29.97 in 10.0 mi West 6.9 mph - N/A   Clear
7:54 AM 59.0 °F 48.0 °F 67% 29.99 in 10.0 mi West 10.4 mph - N/A   Clear
8:54 AM 62.1 °F 48.9 °F 62% 30.00 in 10.0 mi West 15.0 mph 20.7 mph N/A   Clear
9:54 AM 64.9 °F 50.0 °F 58% 29.99 in 10.0 mi West 11.5 mph - N/A   Clear
10:54 AM 66.9 °F 50.0 °F 54% 29.99 in 10.0 mi WNW 11.5 mph - N/A   Clear
11:54 AM 70.0 °F 50.0 °F 49% 29.99 in 10.0 mi WNW 12.7 mph 21.9 mph N/A   Partly Cloudy
12:54 PM 72.0 °F 50.0 °F 46% 29.99 in 10.0 mi WNW 11.5 mph 18.4 mph N/A   Partly Cloudy
1:54 PM 73.0 °F 51.1 °F 46% 29.99 in 10.0 mi NW 10.4 mph - N/A   Mostly Cloudy
2:54 PM 72.0 °F 50.0 °F 46% 29.99 in 10.0 mi NW 12.7 mph 18.4 mph N/A   Mostly Cloudy
3:54 PM 70.0 °F 50.0 °F 49% 29.99 in 10.0 mi WNW 9.2 mph 18.4 mph N/A   Mostly Cloudy
4:54 PM 73.0 °F 51.1 °F 46% 29.99 in 10.0 mi NW 10.4 mph - N/A   Mostly Cloudy
5:54 PM 73.0 °F 52.0 °F 48% 30.01 in 10.0 mi Variable 6.9 mph - N/A   Scattered Clouds
6:54 PM 71.1 °F 52.0 °F 51% 30.02 in 10.0 mi NW 8.1 mph - N/A   Clear
7:54 PM 68.0 °F 52.0 °F 56% 30.03 in 10.0 mi NW 3.5 mph - N/A   Clear
8:54 PM 64.0 °F 52.0 °F 65% 30.03 in 10.0 mi NNW 3.5 mph - N/A   Clear
9:54 PM 62.1 °F 53.1 °F 72% 30.06 in 10.0 mi Calm Calm - N/A   Clear
10:54 PM 59.0 °F 53.1 °F 81% 30.06 in 10.0 mi Calm Calm - N/A   Clear
11:54 PM 59.0 °F 53.1 °F 81% 30.06 in 10.0 mi Calm Calm - N/A   Partly Cloudy